| time (UTC) | temp F | wind direction | speed knots | gust knots | rain 1hr in | rain 24hr in | rain mn in | humidity % | barometer mb |
| 20260506001548 | 65 | 295 | 0.9 | 4.3 | 0.00 | 0.00 | 0.00 | 71 | 1015.7 |
| 20260506000049 | 64 | 310 | 0.0 | 6.1 | 0.00 | 0.00 | 0.00 | 73 | 1015.8 |
| 20260505234603 | 63 | 273 | 0.9 | 5.2 | 0.00 | 0.00 | 0.00 | 76 | 1015.9 |
| 20260505233053 | 63 | 313 | 0.9 | 2.6 | 0.00 | 0.00 | 0.00 | 74 | 1016.1 |
| 20260505231553 | 63 | 248 | 0.9 | 3.5 | 0.00 | 0.00 | 0.00 | 76 | 1016.3 |
| 20260505230048 | 62 | 260 | 0.9 | 3.5 | 0.00 | 0.00 | 0.00 | 76 | 1016.3 |
| 20260505224548 | 62 | 220 | 0.0 | 3.5 | 0.00 | 0.00 | 0.00 | 77 | 1016.4 |
| 20260505223046 | 62 | 302 | 0.9 | 3.5 | 0.00 | 0.00 | 0.00 | 75 | 1016.4 |
| 20260505221550 | 62 | 293 | 0.9 | 3.5 | 0.00 | 0.00 | 0.00 | 76 | 1016.5 |
| 20260505220056 | 62 | 307 | 0.0 | 2.6 | 0.00 | 0.00 | 0.00 | 75 | 1016.6 |
| 20260505214604 | 61 | 0 | 0.0 | 4.3 | 0.00 | 0.00 | 0.00 | 77 | 1016.7 |
| 20260505213058 | 61 | 310 | 0.9 | 5.2 | 0.00 | 0.00 | 0.00 | 77 | 1016.7 |
| 20260505211550 | 61 | 257 | 1.7 | 4.3 | 0.00 | 0.00 | 0.00 | 76 | 1016.7 |
| 20260505210055 | 61 | 257 | 0.9 | 4.3 | 0.00 | 0.00 | 0.00 | 77 | 1016.7 |
| 20260505204556 | 61 | 300 | 0.9 | 3.5 | 0.00 | 0.00 | 0.00 | 76 | 1016.7 |
| 20260505203050 | 61 | 228 | 0.9 | 3.5 | 0.00 | 0.00 | 0.00 | 77 | 1016.9 |
| 20260505201553 | 61 | 251 | 1.7 | 3.5 | 0.00 | 0.00 | 0.00 | 75 | 1016.8 |
| 20260505200100 | 61 | 300 | 0.0 | 1.7 | 0.00 | 0.00 | 0.00 | 76 | 1016.8 |
| 20260505194554 | 61 | 268 | 0.0 | 1.7 | 0.00 | 0.00 | 0.00 | 76 | 1017.0 |
| 20260505193050 | 60 | 1 | 0.0 | 1.7 | 0.00 | 0.00 | 0.00 | 77 | 1017.0 |
| 20260505191546 | 60 | 260 | 0.0 | 1.7 | 0.00 | 0.00 | 0.00 | 76 | 1017.0 |
| 20260505190044 | 60 | 280 | 0.9 | 2.6 | 0.00 | 0.00 | 0.00 | 76 | 1017.0 |
| 20260505184551 | 60 | 225 | 0.0 | 3.5 | 0.00 | 0.00 | 0.00 | 78 | 1016.8 |
| 20260505183047 | 59 | 297 | 0.9 | 3.5 | 0.00 | 0.00 | 0.00 | 81 | 1016.9 |
| 20260505181544 | 58 | 266 | 0.0 | 2.6 | 0.00 | 0.00 | 0.00 | 81 | 1016.9 |
| 20260505180104 | 57 | 231 | 0.9 | 2.6 | 0.00 | 0.00 | 0.00 | 81 | 1016.8 |
| 20260505174602 | 57 | 278 | 0.9 | 2.6 | 0.00 | 0.00 | 0.00 | 84 | 1016.9 |
| 20260505173051 | 57 | 0 | 0.0 | 0.9 | 0.00 | 0.00 | 0.00 | 84 | 1016.8 |
| 20260505171547 | 56 | 215 | 0.9 | 1.7 | 0.00 | 0.00 | 0.00 | 84 | 1016.7 |
| 20260505170048 | 56 | 0 | 0.0 | 1.7 | 0.00 | 0.00 | 0.00 | 84 | 1016.7 |
| 20260505164550 | 55 | 257 | 0.0 | 2.6 | 0.00 | 0.00 | 0.00 | 86 | 1016.8 |
| 20260505163054 | 55 | 0 | 0.0 | 1.7 | 0.00 | 0.00 | 0.00 | 88 | 1016.8 |
| 20260505161549 | 54 | 0 | 0.0 | 2.6 | 0.00 | 0.00 | 0.00 | 88 | 1016.9 |
| 20260505153046 | 53 | 0 | 0.0 | 1.7 | 0.00 | 0.00 | 0.00 | 89 | 1016.8 |
| 20260505151552 | 53 | 0 | 0.0 | 2.6 | 0.00 | 0.00 | 0.00 | 90 | 1016.7 |
| 20260505124550 | 52 | 0 | 0.0 | 0.9 | 0.00 | 0.00 | 0.00 | 93 | 1015.9 |
| 20260505123102 | 52 | 0 | 0.0 | 0.9 | 0.00 | 0.00 | 0.00 | 93 | 1015.7 |
| 20260505121543 | 52 | 0 | 0.0 | 0.9 | 0.00 | 0.00 | 0.00 | 93 | 1015.6 |
| 20260505120050 | 52 | 0 | 0.0 | 0.9 | 0.00 | 0.00 | 0.00 | 92 | 1015.5 |
| 20260505114547 | 52 | 0 | 0.0 | 0.9 | 0.00 | 0.00 | 0.00 | 92 | 1015.5 |
| 20260505113053 | 53 | 284 | 0.0 | 0.9 | 0.00 | 0.00 | 0.00 | 91 | 1015.6 |
| 20260505111547 | 53 | 0 | 0.0 | 0.9 | 0.00 | 0.00 | 0.00 | 90 | 1015.6 |
| 20260505101545 | 53 | 0 | 0.0 | 0.9 | 0.00 | 0.00 | 0.00 | 90 | 1015.4 |
| 20260505100051 | 53 | 206 | 0.0 | 2.6 | 0.00 | 0.00 | 0.00 | 89 | 1015.3 |
| 20260505094547 | 53 | 0 | 0.0 | 0.9 | 0.00 | 0.00 | 0.00 | 89 | 1015.3 |
| 20260505093047 | 53 | 241 | 0.0 | 1.7 | 0.00 | 0.00 | 0.00 | 88 | 1015.2 |
| 20260505091608 | 53 | 252 | 0.0 | 1.7 | 0.00 | 0.00 | 0.00 | 88 | 1015.2 |
| 20260505090050 | 54 | 0 | 0.0 | 1.7 | 0.00 | 0.00 | 0.00 | 88 | 1015.2 |
| 20260505084548 | 54 | 0 | 0.0 | 2.6 | 0.00 | 0.00 | 0.00 | 88 | 1015.1 |
| 20260505083047 | 54 | 242 | 0.0 | 1.7 | 0.00 | 0.00 | 0.00 | 87 | 1015.1 |
| 20260505081557 | 54 | 0 | 0.0 | 2.6 | 0.00 | 0.00 | 0.00 | 87 | 1015.0 |
| 20260505080051 | 54 | 0 | 0.0 | 2.6 | 0.00 | 0.00 | 0.00 | 87 | 1015.0 |
| 20260505074542 | 54 | 0 | 0.0 | 2.6 | 0.00 | 0.00 | 0.00 | 87 | 1014.9 |
| 20260505073049 | 54 | 0 | 0.9 | 3.5 | 0.00 | 0.00 | 0.00 | 87 | 1014.9 |
| 20260505071555 | 55 | 300 | 0.0 | 0.9 | 0.00 | 0.00 | 0.00 | 86 | 1014.8 |
| 20260505070050 | 55 | 250 | 0.0 | 1.7 | 0.00 | 0.00 | 0.00 | 86 | 1014.9 |
| 20260505064547 | 55 | 0 | 0.0 | 2.6 | 0.00 | 0.00 | 0.00 | 86 | 1014.9 |
| 20260505063103 | 55 | 252 | 0.9 | 2.6 | 0.00 | 0.00 | 0.00 | 86 | 1014.8 |
| 20260505061615 | 55 | 240 | 0.0 | 2.6 | 0.00 | 0.00 | 0.00 | 86 | 1014.7 |
| 20260505060101 | 55 | 283 | 0.9 | 2.6 | 0.00 | 0.00 | 0.00 | 85 | 1014.6 |
| 20260505054552 | 55 | 0 | 0.0 | 2.6 | 0.00 | 0.00 | 0.00 | 86 | 1014.7 |
| 20260505053047 | 55 | 253 | 0.0 | 2.6 | 0.00 | 0.00 | 0.00 | 86 | 1014.7 |
| 20260505051609 | 56 | 237 | 0.9 | 3.5 | 0.00 | 0.00 | 0.00 | 85 | 1014.6 |
| 20260505041550 | 57 | 260 | 0.0 | 3.5 | 0.00 | 0.00 | 0.00 | 84 | 1013.9 |
| 20260505040053 | 57 | 240 | 0.9 | 1.7 | 0.00 | 0.00 | 0.00 | 84 | 1013.6 |
| 20260505034549 | 58 | 257 | 0.9 | 3.5 | 0.00 | 0.00 | 0.00 | 82 | 1013.3 |
| 20260505033046 | 59 | 245 | 1.7 | 5.2 | 0.00 | 0.00 | 0.00 | 81 | 1012.9 |
| 20260505031555 | 60 | 240 | 0.9 | 4.3 | 0.00 | 0.00 | 0.00 | 80 | 1012.7 |
| 20260505030100 | 62 | 276 | 0.9 | 3.5 | 0.00 | 0.00 | 0.00 | 78 | 1012.4 |
| 20260505024551 | 63 | 0 | 0.0 | 2.6 | 0.00 | 0.00 | 0.00 | 76 | 1012.2 |
| 20260505023046 | 65 | 292 | 0.0 | 2.6 | 0.00 | 0.00 | 0.00 | 74 | 1012.0 |
| 20260505021547 | 66 | 309 | 0.0 | 1.7 | 0.00 | 0.00 | 0.00 | 73 | 1012.0 |
| 20260505014551 | 70 | 0 | 0.0 | 2.6 | 0.00 | 0.00 | 0.00 | 67 | 1011.9 |
| 20260505013047 | 70 | 297 | 0.0 | 3.5 | 0.00 | 0.00 | 0.00 | 66 | 1012.0 |
| 20260505011548 | 70 | 332 | 0.9 | 4.3 | 0.00 | 0.00 | 0.00 | 66 | 1012.1 |
| 20260505010111 | 70 | 273 | 0.9 | 6.1 | 0.00 | 0.00 | 0.00 | 65 | 1012.2 |
| 20260505004552 | 71 | 250 | 1.7 | 3.5 | 0.00 | 0.00 | 0.00 | 65 | 1012.1 |
| 20260505003056 | 72 | 290 | 0.0 | 2.6 | 0.00 | 0.00 | 0.00 | 62 | 1012.2 |